| time (UTC) | temp F | wind direction | speed MPH | gust MPH | rain 1hr in | rain 24hr in | rain mn in | humidity % | barometer mb |
| 20260509055050 | 51 | 85 | 1.0 | 1.0 | 0.12 | 0.18 | 0.18 | 95 | 1010.0 |
| 20260509054547 | 51 | 178 | 1.0 | 1.0 | 0.12 | 0.17 | 0.17 | 95 | 1010.2 |
| 20260509054045 | 51 | 182 | 1.0 | 1.0 | 0.26 | 0.16 | 0.16 | 95 | 1010.2 |
| 20260509053543 | 51 | 168 | 0.0 | 0.0 | 0.50 | 0.16 | 0.16 | 95 | 1010.3 |
| 20260509053040 | 51 | 157 | 0.0 | 0.0 | 0.24 | 0.12 | 0.12 | 95 | 1010.2 |
| 20260509052538 | 51 | 124 | 0.0 | 0.0 | 0.00 | 0.08 | 0.08 | 95 | 1010.3 |
| 20260509052035 | 51 | 187 | 1.0 | 1.0 | 0.05 | 0.08 | 0.08 | 95 | 1010.4 |
| 20260509051533 | 51 | 223 | 2.0 | 2.0 | 0.05 | 0.08 | 0.08 | 95 | 1010.3 |
| 20260509051030 | 51 | 178 | 2.0 | 2.0 | 0.00 | 0.07 | 0.07 | 95 | 1010.5 |
| 20260509050527 | 51 | 168 | 3.0 | 3.0 | 0.00 | 0.07 | 0.07 | 95 | 1010.2 |
| 20260509050023 | 51 | 208 | 0.0 | 0.0 | 0.07 | 0.07 | 0.07 | 95 | 1010.3 |
| 20260509045520 | 51 | 161 | 4.0 | 3.0 | 0.07 | 0.07 | 0.07 | 95 | 1010.4 |
| 20260509045017 | 51 | 172 | 1.0 | 1.0 | 0.12 | 0.07 | 0.07 | 95 | 1010.4 |
| 20260509044515 | 51 | 167 | 2.0 | 2.0 | 0.12 | 0.06 | 0.06 | 95 | 1010.6 |
| 20260509044013 | 51 | 137 | 0.0 | 0.0 | 0.07 | 0.05 | 0.05 | 95 | 1010.6 |
| 20260509043508 | 51 | 140 | 1.0 | 1.0 | 0.05 | 0.04 | 0.04 | 95 | 1010.3 |
| 20260509043004 | 51 | 141 | 0.0 | 0.0 | 0.05 | 0.04 | 0.04 | 95 | 1010.4 |
| 20260509042501 | 51 | 140 | 0.0 | 0.0 | 0.07 | 0.03 | 0.03 | 95 | 1010.5 |
| 20260509041956 | 51 | 140 | 0.0 | 0.0 | 0.19 | 0.03 | 0.03 | 95 | 1010.7 |
| 20260509041453 | 51 | 134 | 0.0 | 0.0 | 0.12 | 0.02 | 0.02 | 95 | 1010.7 |
| 20260509040951 | 51 | 111 | 1.0 | 1.0 | 0.00 | 0.00 | 0.00 | 94 | 1010.7 |
| 20260509040449 | 51 | 137 | 0.0 | 0.0 | 0.00 | 0.00 | 0.00 | 94 | 1011.1 |
| 20260509035946 | 51 | 145 | 2.0 | 2.0 | 0.00 | 0.38 | 0.38 | 94 | 1011.0 |
| 20260509035442 | 51 | 157 | 0.0 | 1.0 | 0.00 | 0.38 | 0.38 | 94 | 1011.0 |
| 20260509034939 | 51 | 121 | 0.0 | 0.0 | 0.00 | 0.38 | 0.38 | 94 | 1011.1 |
| 20260509034437 | 51 | 174 | 3.0 | 3.0 | 0.00 | 0.38 | 0.38 | 94 | 1011.1 |
| 20260509033934 | 51 | 165 | 3.0 | 3.0 | 0.07 | 0.38 | 0.38 | 94 | 1011.2 |
| 20260509033431 | 51 | 160 | 2.0 | 2.0 | 0.07 | 0.38 | 0.38 | 93 | 1011.3 |
| 20260509032927 | 51 | 115 | 2.0 | 3.0 | 0.00 | 0.37 | 0.37 | 93 | 1011.2 |
| 20260509032425 | 51 | 171 | 1.0 | 1.0 | 0.00 | 0.37 | 0.37 | 93 | 1011.1 |
| 20260509031923 | 51 | 185 | 1.0 | 1.0 | 0.00 | 0.37 | 0.37 | 93 | 1011.2 |
| 20260509031420 | 51 | 123 | 1.0 | 1.0 | 0.05 | 0.37 | 0.37 | 93 | 1011.4 |
| 20260509030917 | 51 | 117 | 1.0 | 1.0 | 0.05 | 0.37 | 0.37 | 93 | 1011.5 |
| 20260509030415 | 51 | 167 | 1.0 | 1.0 | 0.00 | 0.36 | 0.36 | 93 | 1011.5 |
| 20260509025912 | 51 | 173 | 0.0 | 0.0 | 0.07 | 0.36 | 0.36 | 93 | 1011.8 |
| 20260509025408 | 51 | 194 | 1.0 | 1.0 | 0.07 | 0.36 | 0.36 | 94 | 1011.5 |
| 20260509024903 | 51 | 149 | 2.0 | 2.0 | 0.00 | 0.35 | 0.35 | 94 | 1011.6 |
| 20260509024359 | 51 | 152 | 1.0 | 2.0 | 0.00 | 0.35 | 0.35 | 94 | 1011.8 |
| 20260509023856 | 51 | 162 | 0.0 | 0.0 | 0.00 | 0.35 | 0.35 | 94 | 1011.3 |
| 20260509023354 | 51 | 151 | 1.0 | 1.0 | 0.00 | 0.35 | 0.35 | 94 | 1011.5 |
| 20260509022850 | 51 | 161 | 0.0 | 0.0 | 0.00 | 0.35 | 0.35 | 94 | 1011.5 |
| 20260509022347 | 51 | 161 | 0.0 | 0.0 | 0.00 | 0.35 | 0.35 | 94 | 1011.7 |
| 20260509021844 | 51 | 160 | 1.0 | 1.0 | 0.00 | 0.35 | 0.35 | 94 | 1011.5 |
| 20260509021341 | 51 | 163 | 2.0 | 2.0 | 0.00 | 0.35 | 0.35 | 94 | 1011.7 |
| 20260509020839 | 51 | 170 | 0.0 | 0.0 | 0.00 | 0.35 | 0.35 | 94 | 1011.6 |
| 20260509020337 | 51 | 133 | 1.0 | 2.0 | 0.00 | 0.35 | 0.35 | 94 | 1011.6 |
| 20260509015834 | 51 | 145 | 2.0 | 2.0 | 0.00 | 0.35 | 0.35 | 94 | 1011.5 |
| 20260509015332 | 51 | 153 | 1.0 | 1.0 | 0.00 | 0.35 | 0.35 | 94 | 1011.6 |
| 20260509014829 | 51 | 158 | 1.0 | 1.0 | 0.00 | 0.35 | 0.35 | 94 | 1011.4 |
| 20260509014326 | 51 | 175 | 1.0 | 1.0 | 0.00 | 0.35 | 0.35 | 94 | 1011.4 |
| 20260509013822 | 51 | 165 | 1.0 | 1.0 | 0.00 | 0.35 | 0.35 | 94 | 1011.4 |
| 20260509013319 | 50 | 175 | 0.0 | 0.0 | 0.00 | 0.35 | 0.35 | 95 | 1011.5 |
| 20260509012815 | 50 | 153 | 1.0 | 1.0 | 0.00 | 0.35 | 0.35 | 95 | 1011.6 |
| 20260509012312 | 50 | 170 | 0.0 | 0.0 | 0.00 | 0.35 | 0.35 | 95 | 1011.5 |
| 20260509011809 | 50 | 119 | 0.0 | 0.0 | 0.05 | 0.35 | 0.35 | 95 | 1011.3 |
| 20260509011306 | 50 | 124 | 0.0 | 0.0 | 0.05 | 0.35 | 0.35 | 95 | 1011.7 |
| 20260509010804 | 50 | 120 | 1.0 | 1.0 | 0.00 | 0.34 | 0.34 | 94 | 1011.4 |
| 20260509010300 | 50 | 171 | 1.0 | 2.0 | 0.07 | 0.34 | 0.34 | 94 | 1011.5 |
| 20260509005758 | 50 | 165 | 0.0 | 0.0 | 0.07 | 0.34 | 0.34 | 94 | 1011.6 |
| 20260509005256 | 50 | 150 | 0.0 | 0.0 | 0.00 | 0.33 | 0.33 | 94 | 1011.3 |
| 20260509004755 | 50 | 170 | 2.0 | 2.0 | 0.05 | 0.33 | 0.33 | 94 | 1011.4 |
| 20260509004252 | 50 | 170 | 2.0 | 2.0 | 0.05 | 0.33 | 0.33 | 94 | 1011.4 |
| 20260509003751 | 50 | 159 | 1.0 | 1.0 | 0.07 | 0.32 | 0.32 | 94 | 1011.1 |
| 20260509003248 | 50 | 170 | 0.0 | 0.0 | 0.07 | 0.32 | 0.32 | 94 | 1011.2 |
| 20260509002745 | 50 | 157 | 0.0 | 0.0 | 0.07 | 0.32 | 0.32 | 94 | 1011.4 |
| 20260509002243 | 50 | 163 | 2.0 | 2.0 | 0.05 | 0.31 | 0.31 | 94 | 1011.3 |
| 20260509001740 | 50 | 169 | 2.0 | 2.0 | 0.05 | 0.31 | 0.31 | 94 | 1011.4 |
| 20260509001235 | 50 | 179 | 0.0 | 0.0 | 0.07 | 0.30 | 0.30 | 94 | 1011.5 |
| 20260509000734 | 50 | 199 | 3.0 | 2.0 | 0.07 | 0.30 | 0.30 | 94 | 1011.4 |
| 20260509000231 | 51 | 174 | 1.0 | 0.0 | 0.05 | 0.29 | 0.29 | 94 | 1011.5 |
| 20260508235728 | 51 | 176 | 0.0 | 1.0 | 0.05 | 0.29 | 0.29 | 94 | 1011.5 |
| 20260508235224 | 51 | 135 | 0.0 | 0.0 | 0.07 | 0.28 | 0.28 | 93 | 1011.4 |
| 20260508234721 | 51 | 143 | 0.0 | 0.0 | 0.07 | 0.28 | 0.28 | 93 | 1011.2 |
| 20260508234217 | 51 | 160 | 1.0 | 2.0 | 0.07 | 0.27 | 0.27 | 94 | 1011.3 |
| 20260508233712 | 51 | 193 | 1.0 | 0.0 | 0.12 | 0.27 | 0.27 | 94 | 1011.2 |
| 20260508233209 | 51 | 158 | 0.0 | 0.0 | 0.12 | 0.26 | 0.26 | 94 | 1011.2 |
| 20260508232706 | 51 | 174 | 1.0 | 1.0 | 0.12 | 0.25 | 0.25 | 93 | 1011.4 |
| 20260508232202 | 51 | 159 | 0.0 | 0.0 | 0.12 | 0.24 | 0.24 | 93 | 1011.6 |
| 20260508231701 | 51 | 149 | 0.0 | 0.0 | 0.12 | 0.23 | 0.23 | 93 | 1011.4 |
| 20260508231157 | 51 | 116 | 0.0 | 0.0 | 0.12 | 0.22 | 0.22 | 92 | 1011.4 |
| 20260508230654 | 51 | 120 | 0.0 | 0.0 | 0.07 | 0.21 | 0.21 | 92 | 1011.3 |
| 20260508230150 | 51 | 83 | 0.0 | 0.0 | 0.05 | 0.20 | 0.20 | 92 | 1010.9 |
| 20260508225648 | 51 | 102 | 1.0 | 0.0 | 0.05 | 0.20 | 0.20 | 92 | 1011.3 |
| 20260508225144 | 51 | 156 | 0.0 | 0.0 | 0.00 | 0.19 | 0.19 | 92 | 1011.4 |
| 20260508224642 | 51 | 182 | 0.0 | 0.0 | 0.00 | 0.19 | 0.19 | 92 | 1011.3 |
| 20260508224140 | 50 | 198 | 0.0 | 0.0 | 0.00 | 0.19 | 0.19 | 92 | 1011.3 |
| 20260508223637 | 50 | 153 | 1.0 | 1.0 | 0.12 | 0.19 | 0.19 | 92 | 1011.1 |
| 20260508223134 | 50 | 168 | 0.0 | 0.0 | 0.24 | 0.19 | 0.19 | 92 | 1011.4 |
| 20260508222631 | 50 | 246 | 0.0 | 0.0 | 0.31 | 0.17 | 0.17 | 91 | 1011.6 |
| 20260508222128 | 51 | 340 | 1.0 | 2.0 | 0.19 | 0.14 | 0.14 | 91 | 1011.5 |
| 20260508221625 | 51 | 331 | 0.0 | 0.0 | 0.12 | 0.12 | 0.12 | 91 | 1011.4 |
| 20260508221120 | 51 | 357 | 0.0 | 0.0 | 0.12 | 0.11 | 0.11 | 91 | 1011.3 |
| 20260508220617 | 51 | 359 | 1.0 | 1.0 | 0.19 | 0.10 | 0.10 | 90 | 1011.1 |
| 20260508220114 | 51 | 31 | 0.0 | 0.0 | 0.17 | 0.09 | 0.09 | 90 | 1011.3 |
| 20260508215611 | 51 | 86 | 0.0 | 0.0 | 0.12 | 0.08 | 0.08 | 89 | 1011.5 |
| 20260508215107 | 51 | 138 | 0.0 | 0.0 | 0.00 | 0.06 | 0.06 | 89 | 1010.9 |
| 20260508214605 | 51 | 79 | 0.0 | 0.0 | 0.00 | 0.06 | 0.06 | 89 | 1010.8 |
| 20260508214101 | 51 | 72 | 0.0 | 0.0 | 0.00 | 0.06 | 0.06 | 88 | 1010.8 |
| 20260508213558 | 51 | 100 | 0.0 | 0.0 | 0.00 | 0.06 | 0.06 | 89 | 1010.8 |
| 20260508213054 | 51 | 118 | 0.0 | 0.0 | 0.00 | 0.06 | 0.06 | 88 | 1011.3 |
| 20260508212551 | 51 | 166 | 0.0 | 0.0 | 0.00 | 0.06 | 0.06 | 88 | 1010.9 |
| 20260508212047 | 51 | 14 | 0.0 | 0.0 | 0.07 | 0.06 | 0.06 | 88 | 1011.2 |
| 20260508211543 | 52 | 132 | 1.0 | 1.0 | 0.07 | 0.06 | 0.06 | 89 | 1011.5 |
| 20260508211039 | 51 | 136 | 0.0 | 0.0 | 0.00 | 0.05 | 0.05 | 88 | 1011.5 |
| 20260508210536 | 51 | 196 | 1.0 | 1.0 | 0.05 | 0.05 | 0.05 | 87 | 1011.5 |
| 20260508210034 | 52 | 98 | 1.0 | 0.0 | 0.12 | 0.05 | 0.05 | 86 | 1011.6 |
| 20260508205531 | 52 | 266 | 2.0 | 2.0 | 0.07 | 0.04 | 0.04 | 84 | 1011.8 |
| 20260508205027 | 52 | 310 | 2.0 | 2.0 | 0.07 | 0.03 | 0.03 | 83 | 1011.7 |
| 20260508204524 | 52 | 208 | 1.0 | 2.0 | 0.07 | 0.03 | 0.03 | 82 | 1011.6 |
| 20260508204019 | 53 | 24 | 1.0 | 2.0 | 0.00 | 0.02 | 0.02 | 82 | 1011.6 |
| 20260508203515 | 53 | 223 | 0.0 | 1.0 | 0.00 | 0.02 | 0.02 | 82 | 1011.8 |
| 20260508203011 | 53 | 344 | 4.0 | 5.0 | 0.00 | 0.02 | 0.02 | 82 | 1012.0 |
| 20260508202508 | 53 | 297 | 1.0 | 2.0 | 0.00 | 0.02 | 0.02 | 81 | 1012.2 |
| 20260508202005 | 53 | 238 | 3.0 | 2.0 | 0.00 | 0.02 | 0.02 | 80 | 1012.5 |
| 20260508201503 | 54 | 175 | 1.0 | 1.0 | 0.00 | 0.02 | 0.02 | 80 | 1012.4 |
| 20260508200959 | 55 | 357 | 1.0 | 2.0 | 0.00 | 0.02 | 0.02 | 77 | 1012.2 |
| 20260508200456 | 55 | 8 | 1.0 | 1.0 | 0.00 | 0.02 | 0.02 | 74 | 1012.0 |
| 20260508195950 | 56 | 168 | 4.0 | 6.0 | 0.00 | 0.02 | 0.02 | 72 | 1012.3 |
| 20260508195448 | 57 | 172 | 2.0 | 2.0 | 0.00 | 0.02 | 0.02 | 70 | 1012.2 |
| 20260508194944 | 57 | 175 | 0.0 | 0.0 | 0.00 | 0.02 | 0.02 | 69 | 1012.5 |
| 20260508194442 | 58 | 172 | 1.0 | 1.0 | 0.00 | 0.02 | 0.02 | 68 | 1012.3 |
| 20260508193939 | 59 | 268 | 3.0 | 5.0 | 0.00 | 0.02 | 0.02 | 66 | 1012.3 |
| 20260508193435 | 57 | 302 | 1.0 | 1.0 | 0.00 | 0.02 | 0.02 | 69 | 1012.1 |
| 20260508192931 | 57 | 313 | 1.0 | 2.0 | 0.00 | 0.02 | 0.02 | 67 | 1011.9 |
| 20260508192428 | 58 | 271 | 2.0 | 3.0 | 0.00 | 0.02 | 0.02 | 67 | 1012.2 |
| 20260508191925 | 58 | 223 | 4.0 | 6.0 | 0.00 | 0.02 | 0.02 | 65 | 1012.0 |
| 20260508191422 | 58 | 167 | 1.0 | 2.0 | 0.00 | 0.02 | 0.02 | 69 | 1012.5 |
| 20260508190919 | 59 | 318 | 3.0 | 3.0 | 0.00 | 0.02 | 0.02 | 64 | 1012.2 |
| 20260508190416 | 59 | 243 | 1.0 | 1.0 | 0.00 | 0.02 | 0.02 | 66 | 1012.2 |
| 20260508185912 | 59 | 124 | 4.0 | 6.0 | 0.00 | 0.02 | 0.02 | 65 | 1012.2 |
| 20260508185410 | 60 | 333 | 9.0 | 11.0 | 0.00 | 0.02 | 0.02 | 65 | 1012.5 |
| 20260508184907 | 60 | 213 | 3.0 | 3.0 | 0.00 | 0.02 | 0.02 | 62 | 1012.2 |
| 20260508184404 | 60 | 38 | 2.0 | 3.0 | 0.00 | 0.02 | 0.02 | 62 | 1012.6 |
| 20260508183901 | 60 | 345 | 1.0 | 2.0 | 0.00 | 0.02 | 0.02 | 63 | 1012.4 |
| 20260508183358 | 58 | 222 | 3.0 | 3.0 | 0.00 | 0.02 | 0.02 | 68 | 1012.6 |
| 20260508182848 | 58 | 265 | 5.0 | 7.0 | 0.00 | 0.02 | 0.02 | 63 | 1012.6 |
| 20260508182345 | 59 | 311 | 3.0 | 3.0 | 0.00 | 0.02 | 0.02 | 63 | 1012.4 |
| 20260508181840 | 59 | 263 | 3.0 | 3.0 | 0.00 | 0.02 | 0.02 | 65 | 1012.7 |
| 20260508181337 | 58 | 172 | 3.0 | 5.0 | 0.00 | 0.02 | 0.02 | 66 | 1012.7 |
| 20260508180834 | 57 | 259 | 1.0 | 1.0 | 0.00 | 0.02 | 0.02 | 68 | 1012.6 |
| 20260508180331 | 56 | 344 | 3.0 | 3.0 | 0.00 | 0.02 | 0.02 | 69 | 1012.9 |
| 20260508175827 | 56 | 174 | 1.0 | 1.0 | 0.00 | 0.02 | 0.02 | 68 | 1012.9 |
| 20260508175324 | 57 | 334 | 2.0 | 2.0 | 0.00 | 0.02 | 0.02 | 67 | 1013.3 |
| 20260508174823 | 57 | 170 | 3.0 | 3.0 | 0.00 | 0.02 | 0.02 | 68 | 1013.3 |
| 20260508174319 | 58 | 279 | 2.0 | 2.0 | 0.00 | 0.02 | 0.02 | 67 | 1013.5 |
| 20260508173816 | 56 | 14 | 2.0 | 2.0 | 0.00 | 0.02 | 0.02 | 72 | 1013.2 |
| 20260508173313 | 56 | 254 | 3.0 | 5.0 | 0.00 | 0.02 | 0.02 | 69 | 1013.6 |
| 20260508172809 | 57 | 162 | 3.0 | 5.0 | 0.00 | 0.02 | 0.02 | 70 | 1013.4 |
| 20260508172307 | 57 | 328 | 1.0 | 1.0 | 0.00 | 0.02 | 0.02 | 68 | 1013.6 |
| 20260508171802 | 57 | 106 | 1.0 | 2.0 | 0.00 | 0.02 | 0.02 | 65 | 1013.3 |
| 20260508171258 | 57 | 258 | 2.0 | 2.0 | 0.00 | 0.02 | 0.02 | 64 | 1013.0 |
| 20260508170755 | 58 | 348 | 3.0 | 5.0 | 0.00 | 0.02 | 0.02 | 62 | 1013.3 |
| 20260508170254 | 58 | 256 | 1.0 | 2.0 | 0.00 | 0.02 | 0.02 | 62 | 1013.5 |
| 20260508165750 | 58 | 254 | 3.0 | 3.0 | 0.00 | 0.02 | 0.02 | 62 | 1013.5 |
| 20260508165247 | 58 | 298 | 1.0 | 1.0 | 0.00 | 0.02 | 0.02 | 61 | 1013.4 |
| 20260508164743 | 58 | 333 | 5.0 | 6.0 | 0.00 | 0.02 | 0.02 | 57 | 1013.4 |
| 20260508164240 | 58 | 227 | 2.0 | 2.0 | 0.00 | 0.02 | 0.02 | 60 | 1013.5 |
| 20260508163738 | 58 | 264 | 3.0 | 3.0 | 0.00 | 0.02 | 0.02 | 62 | 1013.6 |
| 20260508163235 | 59 | 318 | 5.0 | 6.0 | 0.00 | 0.02 | 0.02 | 60 | 1013.4 |
| 20260508162731 | 58 | 325 | 8.0 | 9.0 | 0.00 | 0.02 | 0.02 | 62 | 1013.5 |
| 20260508162228 | 59 | 303 | 7.0 | 8.0 | 0.00 | 0.02 | 0.02 | 60 | 1013.5 |
| 20260508161725 | 59 | 73 | 1.0 | 1.0 | 0.00 | 0.02 | 0.02 | 60 | 1013.3 |
| 20260508161222 | 58 | 274 | 2.0 | 2.0 | 0.00 | 0.02 | 0.02 | 64 | 1013.4 |
| 20260508160720 | 58 | 344 | 3.0 | 3.0 | 0.00 | 0.02 | 0.02 | 62 | 1013.2 |
| 20260508160218 | 59 | 335 | 3.0 | 3.0 | 0.00 | 0.02 | 0.02 | 58 | 1013.4 |
| 20260508155714 | 59 | 304 | 4.0 | 6.0 | 0.00 | 0.02 | 0.02 | 62 | 1013.5 |
| 20260508155212 | 58 | 279 | 3.0 | 3.0 | 0.00 | 0.02 | 0.02 | 60 | 1013.6 |
| 20260508154709 | 57 | 325 | 4.0 | 6.0 | 0.00 | 0.02 | 0.02 | 63 | 1013.6 |
| 20260508154206 | 58 | 307 | 4.0 | 5.0 | 0.00 | 0.02 | 0.02 | 60 | 1013.5 |
| 20260508153702 | 57 | 150 | 2.0 | 2.0 | 0.00 | 0.02 | 0.02 | 63 | 1013.4 |
| 20260508153159 | 57 | 342 | 6.0 | 7.0 | 0.00 | 0.02 | 0.02 | 61 | 1013.7 |
| 20260508152656 | 58 | 317 | 2.0 | 2.0 | 0.00 | 0.02 | 0.02 | 61 | 1013.6 |
| 20260508152152 | 59 | 286 | 3.0 | 3.0 | 0.00 | 0.02 | 0.02 | 60 | 1013.7 |
| 20260508151648 | 59 | 289 | 3.0 | 5.0 | 0.00 | 0.02 | 0.02 | 60 | 1013.5 |
| 20260508151145 | 59 | 322 | 3.0 | 5.0 | 0.00 | 0.02 | 0.02 | 58 | 1013.6 |
| 20260508150642 | 58 | 225 | 1.0 | 1.0 | 0.00 | 0.02 | 0.02 | 61 | 1013.6 |
| 20260508150138 | 58 | 313 | 3.0 | 2.0 | 0.00 | 0.02 | 0.02 | 62 | 1013.7 |
| 20260508145635 | 57 | 212 | 1.0 | 1.0 | 0.00 | 0.02 | 0.02 | 61 | 1013.6 |
| 20260508145131 | 57 | 236 | 4.0 | 7.0 | 0.00 | 0.02 | 0.02 | 64 | 1013.6 |
| 20260508144629 | 57 | 331 | 2.0 | 2.0 | 0.00 | 0.02 | 0.02 | 63 | 1013.5 |
| 20260508144126 | 57 | 267 | 1.0 | 2.0 | 0.00 | 0.02 | 0.02 | 63 | 1013.5 |
| 20260508143623 | 57 | 221 | 1.0 | 1.0 | 0.00 | 0.02 | 0.02 | 60 | 1013.7 |
| 20260508143120 | 58 | 8 | 1.0 | 1.0 | 0.00 | 0.02 | 0.02 | 62 | 1013.5 |
| 20260508142616 | 57 | 11 | 3.0 | 3.0 | 0.00 | 0.02 | 0.02 | 63 | 1013.7 |
| 20260508142113 | 56 | 263 | 5.0 | 5.0 | 0.00 | 0.02 | 0.02 | 63 | 1013.6 |
| 20260508141610 | 56 | 306 | 2.0 | 2.0 | 0.00 | 0.02 | 0.02 | 60 | 1013.7 |
| 20260508141108 | 55 | 206 | 1.0 | 1.0 | 0.00 | 0.02 | 0.02 | 63 | 1013.8 |
| 20260508140605 | 55 | 275 | 2.0 | 3.0 | 0.00 | 0.02 | 0.02 | 66 | 1013.8 |
| 20260508135557 | 55 | 307 | 3.0 | 5.0 | 0.00 | 0.02 | 0.02 | 64 | 1014.0 |
| 20260508135053 | 55 | 321 | 3.0 | 3.0 | 0.00 | 0.02 | 0.02 | 63 | 1013.7 |
| 20260508134550 | 54 | 352 | 4.0 | 6.0 | 0.00 | 0.02 | 0.02 | 64 | 1013.9 |
| 20260508134047 | 54 | 347 | 2.0 | 2.0 | 0.00 | 0.02 | 0.02 | 64 | 1014.0 |
| 20260508133543 | 54 | 188 | 2.0 | 3.0 | 0.00 | 0.02 | 0.02 | 64 | 1013.8 |
| 20260508133041 | 53 | 186 | 1.0 | 1.0 | 0.00 | 0.02 | 0.02 | 64 | 1014.0 |
| 20260508132539 | 52 | 328 | 4.0 | 7.0 | 0.00 | 0.02 | 0.02 | 66 | 1013.9 |
| 20260508132035 | 53 | 30 | 6.0 | 7.0 | 0.00 | 0.02 | 0.02 | 65 | 1014.1 |
| 20260508131530 | 52 | 268 | 2.0 | 1.0 | 0.00 | 0.02 | 0.02 | 65 | 1013.9 |
| 20260508131027 | 51 | 307 | 0.0 | 0.0 | 0.00 | 0.02 | 0.02 | 68 | 1013.9 |
| 20260508130525 | 51 | 286 | 2.0 | 3.0 | 0.00 | 0.02 | 0.02 | 66 | 1014.1 |
| 20260508130021 | 51 | 207 | 0.0 | 0.0 | 0.00 | 0.02 | 0.02 | 67 | 1014.3 |
| 20260508125517 | 51 | 299 | 2.0 | 2.0 | 0.00 | 0.02 | 0.02 | 68 | 1014.1 |
| 20260508125015 | 51 | 143 | 1.0 | 1.0 | 0.00 | 0.02 | 0.02 | 71 | 1014.2 |
| 20260508124512 | 50 | 300 | 3.0 | 3.0 | 0.00 | 0.02 | 0.02 | 71 | 1014.2 |
| 20260508124009 | 50 | 178 | 1.0 | 1.0 | 0.00 | 0.02 | 0.02 | 71 | 1014.2 |
| 20260508123508 | 50 | 49 | 1.0 | 1.0 | 0.00 | 0.02 | 0.02 | 72 | 1013.9 |
| 20260508123004 | 50 | 137 | 0.0 | 1.0 | 0.00 | 0.02 | 0.02 | 73 | 1014.0 |
| 20260508122501 | 49 | 179 | 1.0 | 1.0 | 0.00 | 0.02 | 0.02 | 73 | 1014.0 |
| 20260508121958 | 49 | 283 | 0.0 | 0.0 | 0.00 | 0.02 | 0.02 | 75 | 1013.9 |
| 20260508121456 | 49 | 198 | 0.0 | 1.0 | 0.00 | 0.02 | 0.02 | 75 | 1013.9 |
| 20260508120954 | 49 | 290 | 2.0 | 2.0 | 0.00 | 0.02 | 0.02 | 75 | 1013.6 |
| 20260508120451 | 49 | 298 | 0.0 | 0.0 | 0.00 | 0.02 | 0.02 | 77 | 1013.9 |
| 20260508115949 | 48 | 264 | 1.0 | 1.0 | 0.00 | 0.02 | 0.02 | 77 | 1013.8 |
| 20260508115447 | 48 | 301 | 1.0 | 3.0 | 0.00 | 0.02 | 0.02 | 77 | 1013.8 |
| 20260508114943 | 48 | 242 | 1.0 | 1.0 | 0.00 | 0.02 | 0.02 | 78 | 1013.7 |
| 20260508114440 | 48 | 50 | 0.0 | 1.0 | 0.00 | 0.02 | 0.02 | 77 | 1013.5 |
| 20260508113937 | 48 | 216 | 2.0 | 2.0 | 0.00 | 0.02 | 0.02 | 76 | 1013.2 |
| 20260508113434 | 48 | 182 | 0.0 | 0.0 | 0.00 | 0.02 | 0.02 | 78 | 1013.3 |
| 20260508112931 | 48 | 275 | 0.0 | 0.0 | 0.00 | 0.02 | 0.02 | 78 | 1013.4 |
| 20260508112428 | 48 | 191 | 0.0 | 0.0 | 0.00 | 0.02 | 0.02 | 78 | 1013.5 |
| 20260508111925 | 48 | 216 | 1.0 | 1.0 | 0.00 | 0.02 | 0.02 | 77 | 1013.4 |
| 20260508111422 | 48 | 166 | 0.0 | 0.0 | 0.00 | 0.02 | 0.02 | 77 | 1013.4 |
| 20260508110919 | 47 | 32 | 1.0 | 1.0 | 0.00 | 0.02 | 0.02 | 79 | 1013.4 |
| 20260508110417 | 47 | 352 | 1.0 | 1.0 | 0.00 | 0.02 | 0.02 | 80 | 1013.3 |
| 20260508105916 | 46 | 230 | 0.0 | 0.0 | 0.00 | 0.02 | 0.02 | 82 | 1013.3 |
| 20260508105413 | 46 | 248 | 0.0 | 0.0 | 0.00 | 0.02 | 0.02 | 83 | 1013.0 |
| 20260508104910 | 45 | 187 | 1.0 | 1.0 | 0.00 | 0.02 | 0.02 | 83 | 1013.2 |
| 20260508104407 | 45 | 275 | 1.0 | 1.0 | 0.00 | 0.02 | 0.02 | 83 | 1012.7 |
| 20260508103904 | 46 | 105 | 1.0 | 1.0 | 0.05 | 0.02 | 0.02 | 83 | 1013.3 |
| 20260508103401 | 46 | 49 | 0.0 | 0.0 | 0.12 | 0.02 | 0.02 | 81 | 1013.5 |
| 20260508102858 | 47 | 234 | 0.0 | 0.0 | 0.12 | 0.02 | 0.02 | 78 | 1013.4 |
| 20260508102356 | 48 | 157 | 2.0 | 5.0 | 0.00 | 0.00 | 0.00 | 75 | 1013.3 |
| 20260508101853 | 48 | 265 | 1.0 | 2.0 | 0.00 | 0.00 | 0.00 | 72 | 1013.4 |
| 20260508101350 | 47 | 356 | 2.0 | 1.0 | 0.00 | 0.00 | 0.00 | 73 | 1013.2 |
| 20260508100848 | 47 | 270 | 0.0 | 0.0 | 0.00 | 0.00 | 0.00 | 74 | 1013.0 |
| 20260508100347 | 46 | 163 | 0.0 | 0.0 | 0.00 | 0.00 | 0.00 | 75 | 1013.0 |
| 20260508095842 | 46 | 172 | 1.0 | 1.0 | 0.00 | 0.00 | 0.00 | 76 | 1013.2 |
| 20260508095340 | 46 | 302 | 1.0 | 1.0 | 0.00 | 0.00 | 0.00 | 76 | 1013.3 |
| 20260508094836 | 46 | 238 | 1.0 | 1.0 | 0.00 | 0.00 | 0.00 | 76 | 1012.8 |
| 20260508094333 | 45 | 204 | 0.0 | 0.0 | 0.00 | 0.00 | 0.00 | 78 | 1013.3 |
| 20260508093831 | 45 | 154 | 0.0 | 0.0 | 0.00 | 0.00 | 0.00 | 78 | 1013.4 |
| 20260508093328 | 45 | 199 | 0.0 | 0.0 | 0.00 | 0.00 | 0.00 | 77 | 1013.4 |
| 20260508092825 | 45 | 282 | 1.0 | 2.0 | 0.00 | 0.00 | 0.00 | 77 | 1013.4 |
| 20260508092323 | 45 | 309 | 0.0 | 0.0 | 0.00 | 0.00 | 0.00 | 77 | 1012.9 |
| 20260508091821 | 45 | 195 | 0.0 | 0.0 | 0.00 | 0.00 | 0.00 | 76 | 1013.5 |
| 20260508091317 | 46 | 174 | 2.0 | 2.0 | 0.00 | 0.00 | 0.00 | 76 | 1013.5 |
| 20260508090815 | 46 | 236 | 1.0 | 2.0 | 0.00 | 0.00 | 0.00 | 76 | 1013.5 |
| 20260508090314 | 46 | 219 | 1.0 | 1.0 | 0.00 | 0.00 | 0.00 | 75 | 1013.5 |
| 20260508085809 | 46 | 164 | 0.0 | 0.0 | 0.00 | 0.00 | 0.00 | 75 | 1013.5 |
| 20260508085307 | 46 | 114 | 1.0 | 2.0 | 0.00 | 0.00 | 0.00 | 75 | 1013.6 |
| 20260508084802 | 46 | 225 | 2.0 | 2.0 | 0.00 | 0.00 | 0.00 | 75 | 1013.5 |
| 20260508084259 | 46 | 195 | 0.0 | 0.0 | 0.00 | 0.00 | 0.00 | 75 | 1013.5 |
| 20260508083757 | 46 | 303 | 1.0 | 1.0 | 0.00 | 0.00 | 0.00 | 76 | 1013.6 |
| 20260508083254 | 45 | 73 | 1.0 | 1.0 | 0.00 | 0.00 | 0.00 | 76 | 1013.5 |
| 20260508082754 | 45 | 275 | 1.0 | 1.0 | 0.00 | 0.00 | 0.00 | 76 | 1013.6 |
| 20260508082252 | 45 | 194 | 1.0 | 1.0 | 0.00 | 0.00 | 0.00 | 76 | 1013.4 |
| 20260508081749 | 45 | 206 | 0.0 | 0.0 | 0.00 | 0.00 | 0.00 | 76 | 1013.3 |
| 20260508081246 | 45 | 77 | 1.0 | 2.0 | 0.00 | 0.00 | 0.00 | 76 | 1013.6 |
| 20260508080743 | 45 | 146 | 0.0 | 0.0 | 0.00 | 0.00 | 0.00 | 76 | 1013.6 |
| 20260508080241 | 46 | 109 | 0.0 | 0.0 | 0.00 | 0.00 | 0.00 | 76 | 1013.7 |
| 20260508075737 | 46 | 256 | 3.0 | 3.0 | 0.00 | 0.00 | 0.00 | 76 | 1013.6 |
| 20260508075234 | 46 | 137 | 0.0 | 1.0 | 0.00 | 0.00 | 0.00 | 75 | 1013.5 |
| 20260508074732 | 46 | 298 | 3.0 | 3.0 | 0.00 | 0.00 | 0.00 | 75 | 1013.7 |
| 20260508074229 | 46 | 326 | 3.0 | 3.0 | 0.00 | 0.00 | 0.00 | 74 | 1013.8 |
| 20260508073726 | 47 | 178 | 0.0 | 0.0 | 0.00 | 0.00 | 0.00 | 73 | 1013.9 |
| 20260508073224 | 47 | 162 | 2.0 | 2.0 | 0.00 | 0.00 | 0.00 | 72 | 1013.9 |
| 20260508072719 | 47 | 213 | 1.0 | 2.0 | 0.00 | 0.00 | 0.00 | 71 | 1013.7 |
| 20260508072217 | 48 | 57 | 1.0 | 1.0 | 0.00 | 0.00 | 0.00 | 70 | 1013.8 |
| 20260508071714 | 48 | 249 | 0.0 | 1.0 | 0.00 | 0.00 | 0.00 | 69 | 1014.0 |
| 20260508071212 | 48 | 262 | 1.0 | 1.0 | 0.00 | 0.00 | 0.00 | 68 | 1013.7 |
| 20260508070709 | 49 | 255 | 2.0 | 2.0 | 0.00 | 0.00 | 0.00 | 67 | 1013.8 |
| 20260508070208 | 49 | 295 | 5.0 | 6.0 | 0.00 | 0.00 | 0.00 | 66 | 1013.9 |
| 20260508065704 | 49 | 30 | 3.0 | 3.0 | 0.00 | 0.00 | 0.00 | 65 | 1013.8 |
| 20260508065202 | 49 | 205 | 3.0 | 6.0 | 0.00 | 0.00 | 0.00 | 64 | 1013.8 |
| 20260508064700 | 48 | 239 | 2.0 | 2.0 | 0.00 | 0.00 | 0.00 | 63 | 1013.8 |
| 20260508064158 | 48 | 260 | 1.0 | 1.0 | 0.00 | 0.00 | 0.00 | 63 | 1014.0 |
| 20260508063655 | 48 | 197 | 2.0 | 2.0 | 0.00 | 0.00 | 0.00 | 64 | 1013.9 |
| 20260508063153 | 48 | 230 | 1.0 | 1.0 | 0.00 | 0.00 | 0.00 | 63 | 1013.8 |
| 20260508062650 | 48 | 281 | 2.0 | 2.0 | 0.00 | 0.00 | 0.00 | 63 | 1013.8 |
| 20260508062147 | 48 | 233 | 1.0 | 2.0 | 0.00 | 0.00 | 0.00 | 63 | 1013.9 |
| 20260508061644 | 48 | 215 | 2.0 | 2.0 | 0.00 | 0.00 | 0.00 | 63 | 1013.8 |
| 20260508061141 | 48 | 132 | 0.0 | 0.0 | 0.00 | 0.00 | 0.00 | 65 | 1014.0 |
| 20260508060638 | 47 | 153 | 1.0 | 1.0 | 0.00 | 0.00 | 0.00 | 65 | 1013.8 |
| 20260508060135 | 47 | 143 | 0.0 | 0.0 | 0.00 | 0.00 | 0.00 | 65 | 1013.9 |
| 20260508055631 | 47 | 167 | 0.0 | 0.0 | 0.00 | 0.00 | 0.00 | 65 | 1013.9 |